Simultaneous Nadir Overpasses (SNOs) Predictions

Prediction of SNOs over PacNW region [( 10.00, 139.50) to ( 22.70, 165.60)] between AQUA and NPP Satellites:

Table of predicted SNOs over PacNW region for the next 30.0 days since TLE Epoch: 11/29/2019
Index Date (AQUA) Time (AQUA) AQUA Lat,Lon Date (NPP) Time (NPP) NPP Lat,Lon Distance(km) Time Diff (sec)
1 11/30/2019 15:59:09 22.58, 147.48 11/30/2019 16:01:46 23.25, 144.55 309.16 157
2 12/08/2019 15:09:39 22.60, 159.86 12/08/2019 15:10:57 23.19, 157.23 277.14 78
3 12/11/2019 03:31:28 22.67, 147.54 12/11/2019 03:27:58 25.42, 145.07 395.34 210
4 12/16/2019 15:59:01 22.63, 147.52 12/16/2019 16:01:35 23.28, 144.58 310.42 154
5 12/24/2019 15:09:31 22.59, 159.90 12/24/2019 15:10:47 23.17, 157.25 279.09 76
6 12/27/2019 03:31:18 22.66, 147.59 12/27/2019 03:27:49 25.59, 145.05 415.58 209




NCC Satellite Simultaneous Nadir Overpasses (SNOs) Prediction Service
